Location: Banff
(51.1667°N, 115.5667°W)
Time: 14:03:18
(UTC+00:00)

Vanguard 1 - Pass Details

Date: 02 December 2020
Orbit: 649 x 3834 km, 34.3° (Epoch: 15 January)

Event Time Altitude Azimuth Distance (km) Brightness Sun altitude
Exits shadow 11:41:15 12° 165° (SSE) 2,491 12.2 -34.2°
Maximum altitude 11:42:37 13° 151° (SSE) 2,573 12.4 -34.0°
Drops below altitude 10° 11:45:42 10° 125° (SE) 3,136 13.1 -33.5°
Sets 11:51:22 0° 102° (ESE) 4,800 14.6 -32.6°
